CZ-2D DEB, 43487

Orbit data source: Space-Track

CZ-2D DEB, 43487 is space debris in SSO originally from a launch on Sat, 02 Jun 2018 UTC launched from the Jiuquan Satellite Launch Center, China (JSC). Debris objects in space refer to the collection of defunct objects orbiting the Earth. Examples of debris include non-operational satellites, rocket bodies, and fragments generated from explosions, collisions, or faulty payload assembly.

Loading next visibility...
Identifier
43487, 2018-048D
Orbit
SSO
Country
Flag of CNCN / PRC
Related business
Manufacturer
CALT
Mission
Spacecraft
Bus & Motor
Unknown
Mass
1 kg wet, 1 kg dry
Launch date (UTC)
2018-06-02 (7 years ago)
Launch vehicle
Unknown
Launch site
Jiuquan Satellite Launch Center, China (JSC)
Object type
Payload
Rocket body
Debris
Shape & HBR
Cone, 0.1 m
Radar Cross Section
0.025 m², Small (<0.1 m²)

Expand to show TLE details & history
Last TLE update: 11 hours ago

TLE from 11 hours ago
0 CZ-2D DEB
1 43487U 18048D   25258.47598110  .00003203  00000-0  35679-3 0  9995
2 43487  97.6204 270.7004 0025465 252.0263 107.8178 14.87541215393160
Epoch: 2025-09-15T11:25Z
TLE epoch observation values (Epoch: 2025-09-15T11:25:24.767Z)
Latitude
0.00001°
Longitude
104.66711°
Altitude
614.145 km
Speed
7.549 km/s
True Right ascension
18h 02m 48s
True Declination
0° 00' 00"
Sunlit
Object was in daylight at epoch
Visualization orbit readout
Latitude
Unknown
Longitude
Unknown
Altitude
Unknown
Speed
Unknown
Apparent Right ascension
Unknown
Apparent Declination
Unknown
Sunlit
N/A
Visualization observer readout
Local Sidereal Time
15:10:50
Azimuth
Unknown
Elevation
Unknown
Doppler factor
Unknown
Orbital elements
Apogee altitude
620.416 km
Perigee altitude
584.863 km
Semi-major axis
6,980.776 km
Eccentricity
0.00255
Inclination
97.6204°
RAAN
270.7004°
Arg. of periapsis
252.0263°
True anomaly
108.09534°
Mean anomaly
107.8178°
Eccentric anomaly
107.9566°
Mean motion
3.72124 °/min
Orbital period
96.74 mins
BSTAR
0.00035679
Loading maneuver chart data...
Computing Atmospheric mass density...
Loading historical data...
Loading historical data...
Loading historical data...
Loading historical data...
Loading historical data...
Loading historical data...
Loading historical data...
Other satellites on launch #48 in the year 2018 (2018-06-02 UTC)

Documentation

Showing up to 5 results
|